,,,PA_Meas_PMT16A,,PR_Meas_QMR101_102,,RH_Meas_QMH101,,SR_Meas_QMS101,,TA_Meas_QMH101,,GenWind,,GenWind,
date,time,status,PA,status,PR,status,RH,status,SR,status,TA,status,DirAvg,status,SpdAvg,
2008-11-19, 00:00:04,VALID,1008.01,VALID,0,VALID,95.2762,VALID,0,VALID,24.7854,VALID,171,VALID,0.550781,
2008-11-19, 00:01:04,VALID,1007.98,VALID,0,VALID,95.2914,VALID,0,VALID,24.7445,VALID,171,VALID,0.547656,
2008-11-19, 00:02:04,VALID,1007.94,VALID,0,VALID,95.2914,VALID,0,VALID,24.7659,VALID,171,VALID,0.655859,
2008-11-19, 00:03:04,VALID,1007.93,VALID,0,VALID,95.2838,VALID,0,VALID,24.725,VALID,171,VALID,0.642578,
2008-11-19, 00:04:04,VALID,1007.91,VALID,0,VALID,95.2762,VALID,0,VALID,24.7659,VALID,171,VALID,0.560938,
2008-11-19, 00:05:04,VALID,1007.91,VALID,0,VALID,95.2762,VALID,0,VALID,24.7659,VALID,174,VALID,0.642578,
2008-11-19, 00:06:04,VALID,1007.89,VALID,0,VALID,95.2762,VALID,0,VALID,24.7659,VALID,174,VALID,0.460156,
2008-11-19, 00:07:04,VALID,1007.87,VALID,0,VALID,95.2685,VALID,0,VALID,24.7659,VALID,174,VALID,0.342187,
2008-11-19, 00:08:04,VALID,1007.85,VALID,0,VALID,95.2533,VALID,0,VALID,24.7854,VALID,174,VALID,0.429297,
2008-11-19, 00:09:04,VALID,1007.84,VALID,0,VALID,95.2533,VALID,0,VALID,24.7464,VALID,174,VALID,0.508984,
2008-11-19, 00:10:04,VALID,1007.81,VALID,0,VALID,95.238,VALID,0,VALID,24.7659,VALID,174,VALID,0.510547,
2008-11-19, 00:11:04,VALID,1007.77,VALID,0,VALID,95.2533,VALID,0,VALID,24.7269,VALID,173,VALID,0.369922,
2008-11-19, 00:12:04,VALID,1007.77,VALID,0,VALID,95.2533,VALID,0,VALID,24.7464,VALID,133,VALID,0.598828,
2008-11-19, 00:13:04,VALID,1007.74,VALID,0,VALID,95.238,VALID,0,VALID,24.7464,VALID,133,VALID,0.593359,
2008-11-19, 00:14:04,VALID,1007.73,VALID,0,VALID,95.238,VALID,0,VALID,24.7464,VALID,133,VALID,0.458594,
2008-11-19, 00:15:04,VALID,1007.73,VALID,0,VALID,95.2457,VALID,0,VALID,24.7464,VALID,133,VALID,0.514453,
2008-11-19, 00:16:04,VALID,1007.72,VALID,0,VALID,95.238,VALID,0,VALID,24.7659,VALID,133,VALID,0.515625,
2008-11-19, 00:17:04,VALID,1007.71,VALID,0,VALID,95.2457,VALID,0,VALID,24.7445,VALID,133,VALID,0.291406,
2008-11-19, 00:18:04,VALID,1007.7,VALID,0,VALID,95.2457,VALID,0,VALID,24.7464,VALID,136,VALID,0.5,
2008-11-19, 00:19:04,VALID,1007.69,VALID,0,VALID,95.2304,VALID,0,VALID,24.7464,VALID,158,VALID,0.596484,
2008-11-19, 00:20:04,VALID,1007.69,VALID,0,VALID,95.2304,VALID,0,VALID,24.7269,VALID,172,VALID,0.700781,
2008-11-19, 00:21:04,VALID,1007.66,VALID,0,VALID,95.2304,VALID,0,VALID,24.7269,VALID,173,VALID,0.689453,
2008-11-19, 00:22:04,VALID,1007.64,VALID,0,VALID,95.2304,VALID,0,VALID,24.7269,VALID,170,VALID,0.481641,
2008-11-19, 00:23:04,VALID,1007.64,VALID,0,VALID,95.2228,VALID,0,VALID,24.7269,VALID,166,VALID,0.686328,
2008-11-19, 00:24:04,VALID,1007.62,VALID,0,VALID,95.2533,VALID,0,VALID,24.7074,VALID,165,VALID,0.864453,
2008-11-19, 00:25:04,VALID,1007.6,VALID,0,VALID,95.2304,VALID,0,VALID,24.7074,VALID,149,VALID,0.639453,
2008-11-19, 00:26:04,VALID,1007.59,VALID,0,VALID,95.238,VALID,0,VALID,24.7074,VALID,142,VALID,0.863281,
2008-11-19, 00:27:04,VALID,1007.6,VALID,0,VALID,95.2228,VALID,0,VALID,24.7074,VALID,137,VALID,0.713672,
2008-11-19, 00:28:04,VALID,1007.53,VALID,0,VALID,95.2304,VALID,0,VALID,24.686,VALID,136,VALID,0.531641,
2008-11-19, 00:29:04,VALID,1007.53,VALID,0,VALID,95.238,VALID,0,VALID,24.686,VALID,107,VALID,0.568359,
2008-11-19, 00:30:04,VALID,1007.5,VALID,0,VALID,95.238,VALID,0,VALID,24.7074,VALID,126,VALID,0.650391,
2008-11-19, 00:31:04,VALID,1007.48,VALID,0,VALID,95.2533,VALID,0,VALID,24.6879,VALID,102,VALID,0.586328,
2008-11-19, 00:32:04,VALID,1007.49,VALID,0,VALID,95.2533,VALID,0,VALID,24.7074,VALID,101,VALID,0.670313,
2008-11-19, 00:33:04,VALID,1007.47,VALID,0,VALID,95.2533,VALID,0,VALID,24.7074,VALID,98,VALID,0.411328,
2008-11-19, 00:34:04,VALID,1007.49,VALID,0,VALID,95.2609,VALID,0,VALID,24.6879,VALID,96,VALID,0.614453,
2008-11-19, 00:35:04,VALID,1007.44,VALID,0,VALID,95.2457,VALID,0,VALID,24.6879,VALID,86,VALID,0.484375,
2008-11-19, 00:36:04,VALID,1007.42,VALID,0,VALID,95.2609,VALID,0,VALID,24.6879,VALID,85,VALID,0.419531,
2008-11-19, 00:37:04,VALID,1007.43,VALID,0,VALID,95.2533,VALID,0,VALID,24.6879,VALID,84,VALID,0.470703,
2008-11-19, 00:38:04,VALID,1007.42,VALID,0,VALID,95.2762,VALID,0,VALID,24.6684,VALID,80,VALID,0.654688,
2008-11-19, 00:39:04,VALID,1007.41,VALID,0,VALID,95.2685,VALID,0,VALID,24.6489,VALID,89,VALID,0.636719,
2008-11-19, 00:40:04,VALID,1007.43,VALID,0,VALID,95.2762,VALID,0,VALID,24.6489,VALID,87,VALID,0.465625,
2008-11-19, 00:41:04,VALID,1007.41,VALID,0,VALID,95.2762,VALID,0,VALID,24.6294,VALID,88,VALID,0.435156,
2008-11-19, 00:42:04,VALID,1007.44,VALID,0,VALID,95.2762,VALID,0,VALID,24.6489,VALID,88,VALID,0.367969,
2008-11-19, 00:43:04,VALID,1007.41,VALID,0,VALID,95.299,VALID,0,VALID,24.6684,VALID,88,VALID,0,
2008-11-19, 00:44:04,VALID,1007.41,VALID,0,VALID,95.3143,VALID,0,VALID,24.6471,VALID,128,VALID,0.224609,
2008-11-19, 00:45:04,VALID,1007.39,VALID,0,VALID,95.3143,VALID,0,VALID,24.6489,VALID,152,VALID,0.896484,
2008-11-19, 00:46:04,VALID,1007.35,VALID,0,VALID,95.3143,VALID,0,VALID,24.6294,VALID,144,VALID,1.0332,
2008-11-19, 00:47:04,VALID,1007.37,VALID,0,VALID,95.3143,VALID,0,VALID,24.6294,VALID,162,VALID,0.817578,
2008-11-19, 00:48:04,VALID,1007.35,VALID,0,VALID,95.3219,VALID,0,VALID,24.6294,VALID,172,VALID,0.692969,
2008-11-19, 00:49:04,VALID,1007.35,VALID,0,VALID,95.3219,VALID,0,VALID,24.6294,VALID,163,VALID,0.673437,
2008-11-19, 00:50:04,VALID,1007.32,VALID,0,VALID,95.3524,VALID,0,VALID,24.6294,VALID,173,VALID,0.830859,
2008-11-19, 00:51:04,VALID,1007.33,VALID,0,VALID,95.3372,VALID,0,VALID,24.6099,VALID,181,VALID,0.775,
2008-11-19, 00:52:04,VALID,1007.32,VALID,0,VALID,95.3372,VALID,0,VALID,24.6294,VALID,163,VALID,0.922266,
2008-11-19, 00:53:04,VALID,1007.32,VALID,0,VALID,95.3448,VALID,0,VALID,24.6099,VALID,161,VALID,0.841406,
2008-11-19, 00:54:04,VALID,1007.34,VALID,0,VALID,95.3829,VALID,0,VALID,24.6099,VALID,159,VALID,0.550781,
2008-11-19, 00:55:04,VALID,1007.31,VALID,0,VALID,95.3829,VALID,0.105969,VALID,24.6294,VALID,159,VALID,0.478125,
2008-11-19, 00:56:04,VALID,1007.3,VALID,0,VALID,95.3753,VALID,0.105969,VALID,24.6294,VALID,135,VALID,0.505859,
2008-11-19, 00:57:04,VALID,1007.31,VALID,0,VALID,95.3905,VALID,0,VALID,24.6081,VALID,113,VALID,0.30625,
2008-11-19, 00:58:04,VALID,1007.32,VALID,0,VALID,95.3829,VALID,0,VALID,24.6081,VALID,112,VALID,0.182422,
2008-11-19, 00:59:04,VALID,1007.31,VALID,0,VALID,95.3905,VALID,0,VALID,24.6081,VALID,112,VALID,0.308203,
2008-11-19, 01:00:04,VALID,1007.32,VALID,0,VALID,95.3982,VALID,0,VALID,24.5886,VALID,128,VALID,0.473828,
2008-11-19, 01:01:04,VALID,1007.29,VALID,0,VALID,95.3982,VALID,0,VALID,24.6294,VALID,128,VALID,0.303516,
2008-11-19, 01:02:04,VALID,1007.29,VALID,0,VALID,95.4134,VALID,0.105969,VALID,24.6294,VALID,128,VALID,0.5,
2008-11-19, 01:03:04,VALID,1007.29,VALID,0,VALID,95.4134,VALID,0.105969,VALID,24.6294,VALID,128,VALID,0.480078,
2008-11-19, 01:04:04,VALID,1007.28,VALID,0,VALID,95.4134,VALID,0,VALID,24.6489,VALID,128,VALID,0.470313,
2008-11-19, 01:05:04,VALID,1007.3,VALID,0,VALID,95.4211,VALID,0.105969,VALID,24.6081,VALID,128,VALID,0.394141,
2008-11-19, 01:06:04,VALID,1007.27,VALID,0,VALID,95.4134,VALID,0,VALID,24.5886,VALID,128,VALID,0.412109,
2008-11-19, 01:07:04,VALID,1007.27,VALID,0,VALID,95.4134,VALID,0,VALID,24.6294,VALID,128,VALID,0.503516,
2008-11-19, 01:08:04,VALID,1007.29,VALID,0,VALID,95.4211,VALID,0,VALID,24.5886,VALID,128,VALID,0.244922,
2008-11-19, 01:09:04,VALID,1007.26,VALID,0,VALID,95.4134,VALID,0,VALID,24.6294,VALID,128,VALID,0.08125,
2008-11-19, 01:10:04,VALID,1007.23,VALID,0,VALID,95.4439,VALID,0,VALID,24.6489,VALID,127,VALID,0.316406,
2008-11-19, 01:11:04,VALID,1007.26,VALID,0,VALID,95.4363,VALID,0,VALID,24.6489,VALID,123,VALID,0.326562,
2008-11-19, 01:12:04,VALID,1007.26,VALID,0,VALID,95.4287,VALID,0,VALID,24.6294,VALID,123,VALID,0.26875,
2008-11-19, 01:13:04,VALID,1007.28,VALID,0,VALID,95.4363,VALID,0,VALID,24.6489,VALID,123,VALID,0.267969,
2008-11-19, 01:14:04,VALID,1007.27,VALID,0,VALID,95.4363,VALID,0,VALID,24.6489,VALID,90,VALID,0.726953,
2008-11-19, 01:15:04,VALID,1007.27,VALID,0,VALID,95.4287,VALID,0,VALID,24.6489,VALID,90,VALID,0.63125,
2008-11-19, 01:16:04,VALID,1007.26,VALID,0,VALID,95.4516,VALID,0,VALID,24.6489,VALID,91,VALID,0.538672,
2008-11-19, 01:17:04,VALID,1007.24,VALID,0,VALID,95.4363,VALID,0,VALID,24.6471,VALID,93,VALID,0.307031,
2008-11-19, 01:18:04,VALID,1007.27,VALID,0,VALID,95.4439,VALID,0,VALID,24.6684,VALID,95,VALID,0.445703,
2008-11-19, 01:19:04,VALID,1007.26,VALID,0,VALID,95.4516,VALID,0,VALID,24.6684,VALID,95,VALID,0.507422,
2008-11-19, 01:20:04,VALID,1007.26,VALID,0,VALID,95.4439,VALID,0,VALID,24.6684,VALID,95,VALID,0.565234,
2008-11-19, 01:21:04,VALID,1007.24,VALID,0,VALID,95.4516,VALID,0,VALID,24.6471,VALID,95,VALID,0.387891,
2008-11-19, 01:22:04,VALID,1007.24,VALID,0,VALID,95.4668,VALID,0,VALID,24.6879,VALID,95,VALID,0.359766,
2008-11-19, 01:23:04,VALID,1007.25,VALID,0,VALID,95.4439,VALID,0,VALID,24.7074,VALID,106,VALID,0.600391,
2008-11-19, 01:24:04,VALID,1007.25,VALID,0,VALID,95.4592,VALID,0,VALID,24.7074,VALID,122,VALID,0.681641,
2008-11-19, 01:25:04,VALID,1007.23,VALID,0,VALID,95.4516,VALID,0,VALID,24.7269,VALID,110,VALID,0.650781,
2008-11-19, 01:26:04,VALID,1007.24,VALID,0,VALID,95.4668,VALID,0,VALID,24.7074,VALID,109,VALID,0.819141,
2008-11-19, 01:27:04,VALID,1007.22,VALID,0,VALID,95.4439,VALID,0,VALID,24.7074,VALID,119,VALID,0.667578,
2008-11-19, 01:28:04,VALID,1007.19,VALID,0,VALID,95.4592,VALID,0,VALID,24.7074,VALID,133,VALID,0.878906,
2008-11-19, 01:29:04,VALID,1007.2,VALID,0,VALID,95.4668,VALID,0,VALID,24.6879,VALID,133,VALID,1.12148,
2008-11-19, 01:30:04,VALID,1007.15,VALID,0,VALID,95.4516,VALID,0,VALID,24.6879,VALID,131,VALID,0.941016,
2008-11-19, 01:31:04,VALID,1007.14,VALID,0,VALID,95.4516,VALID,0,VALID,24.6879,VALID,138,VALID,0.745703,
2008-11-19, 01:32:04,VALID,1007.12,VALID,0,VALID,95.4287,VALID,0,VALID,24.7288,VALID,143,VALID,0.723047,
2008-11-19, 01:33:04,VALID,1007.1,VALID,0,VALID,95.4592,VALID,0,VALID,24.6879,VALID,159,VALID,0.683984,
2008-11-19, 01:34:04,VALID,1007.07,VALID,0,VALID,95.4592,VALID,0,VALID,24.6684,VALID,164,VALID,0.848828,
2008-11-19, 01:35:04,VALID,1007.06,VALID,0,VALID,95.4363,VALID,0,VALID,24.6684,VALID,167,VALID,1.01016,
2008-11-19, 01:36:04,VALID,1007.07,VALID,0,VALID,95.4592,VALID,0,VALID,24.6684,VALID,167,VALID,0.964844,
2008-11-19, 01:37:04,VALID,1007.05,VALID,0,VALID,95.4363,VALID,0,VALID,24.6684,VALID,161,VALID,1.2207,
2008-11-19, 01:38:04,VALID,1007.07,VALID,0,VALID,95.4516,VALID,0,VALID,24.6489,VALID,160,VALID,0.780859,
2008-11-19, 01:39:04,VALID,1007.03,VALID,0,VALID,95.4516,VALID,0,VALID,24.6684,VALID,168,VALID,1.45039,
2008-11-19, 01:40:04,VALID,1007.05,VALID,0,VALID,95.4516,VALID,0,VALID,24.6684,VALID,150,VALID,1.15234,
2008-11-19, 01:41:04,VALID,1007.03,VALID,0,VALID,95.4363,VALID,0,VALID,24.7074,VALID,150,VALID,0.619531,
2008-11-19, 01:42:04,VALID,1007.04,VALID,0,VALID,95.4439,VALID,0,VALID,24.6879,VALID,167,VALID,1.04531,
2008-11-19, 01:43:04,VALID,1007.06,VALID,0,VALID,95.4439,VALID,0,VALID,24.7074,VALID,147,VALID,0.680078,
2008-11-19, 01:44:04,VALID,1007.05,VALID,0,VALID,95.4363,VALID,0,VALID,24.7074,VALID,126,VALID,1.74023,
2008-11-19, 01:45:04,VALID,1007.06,VALID,0,VALID,95.4439,VALID,0,VALID,24.7074,VALID,122,VALID,0.908203,
2008-11-19, 01:46:04,VALID,1007.05,VALID,0,VALID,95.4363,VALID,0,VALID,24.6879,VALID,116,VALID,1.40391,
2008-11-19, 01:47:04,VALID,1007.06,VALID,0,VALID,95.4211,VALID,0,VALID,24.6684,VALID,129,VALID,1.82695,
2008-11-19, 01:48:04,VALID,1007.07,VALID,0,VALID,95.4058,VALID,0,VALID,24.6471,VALID,128,VALID,1.87344,
2008-11-19, 01:49:04,VALID,1007.08,VALID,0,VALID,95.4134,VALID,0,VALID,24.6489,VALID,105,VALID,1.41758,
2008-11-19, 01:50:04,VALID,1007.08,VALID,0,VALID,95.4058,VALID,0,VALID,24.6276,VALID,140,VALID,1.58633,
2008-11-19, 01:51:04,VALID,1007.11,VALID,0,VALID,95.4287,VALID,0,VALID,24.6489,VALID,138,VALID,1.17148,
2008-11-19, 01:52:04,VALID,1007.1,VALID,0,VALID,95.4058,VALID,0,VALID,24.6294,VALID,146,VALID,1.3707,
2008-11-19, 01:53:04,VALID,1007.13,VALID,0,VALID,95.4287,VALID,0,VALID,24.6099,VALID,152,VALID,1.35859,
2008-11-19, 01:54:04,VALID,1007.13,VALID,0,VALID,95.4211,VALID,0,VALID,24.5886,VALID,122,VALID,1.18125,
2008-11-19, 01:55:04,VALID,1007.15,VALID,0,VALID,95.4134,VALID,0,VALID,24.6099,VALID,117,VALID,1.72422,
2008-11-19, 01:56:04,VALID,1007.13,VALID,0,VALID,95.4134,VALID,0,VALID,24.6099,VALID,150,VALID,0.933203,
2008-11-19, 01:57:04,VALID,1007.13,VALID,0,VALID,95.4134,VALID,0,VALID,24.6099,VALID,163,VALID,0.961328,
2008-11-19, 01:58:04,VALID,1007.1,VALID,0,VALID,95.4134,VALID,0,VALID,24.6081,VALID,121,VALID,0.99375,
2008-11-19, 01:59:04,VALID,1007.13,VALID,0,VALID,95.4211,VALID,0,VALID,24.6099,VALID,157,VALID,0.794141,
2008-11-19, 02:00:04,VALID,1007.12,VALID,0,VALID,95.3905,VALID,0,VALID,24.6099,VALID,146,VALID,0.687891,
2008-11-19, 02:01:04,VALID,1007.1,VALID,0,VALID,95.4134,VALID,0,VALID,24.5905,VALID,143,VALID,0.680078,
2008-11-19, 02:02:04,VALID,1007.11,VALID,0,VALID,95.4134,VALID,0,VALID,24.5905,VALID,139,VALID,0.550391,
2008-11-19, 02:03:04,VALID,1007.11,VALID,0,VALID,95.4058,VALID,0,VALID,24.5691,VALID,121,VALID,1.29453,
2008-11-19, 02:04:04,VALID,1007.13,VALID,0,VALID,95.4058,VALID,0,VALID,24.571,VALID,110,VALID,1.02578,
2008-11-19, 02:05:04,VALID,1007.11,VALID,0,VALID,95.4211,VALID,0,VALID,24.571,VALID,137,VALID,1.21484,
2008-11-19, 02:06:04,VALID,1007.1,VALID,0,VALID,95.4134,VALID,0,VALID,24.5125,VALID,120,VALID,1.17852,
2008-11-19, 02:07:04,VALID,1007.1,VALID,0,VALID,95.4134,VALID,0,VALID,24.5125,VALID,117,VALID,1.33242,
2008-11-19, 02:08:04,VALID,1007.1,VALID,0,VALID,95.4363,VALID,0,VALID,24.4911,VALID,126,VALID,1.64805,
2008-11-19, 02:09:04,VALID,1007.1,VALID,0,VALID,95.4058,VALID,0,VALID,24.493,VALID,150,VALID,1.71211,
2008-11-19, 02:10:04,VALID,1007.11,VALID,0,VALID,95.4134,VALID,0,VALID,24.4717,VALID,111,VALID,1.35195,
2008-11-19, 02:11:04,VALID,1007.1,VALID,0,VALID,95.4363,VALID,0,VALID,24.5125,VALID,107,VALID,0.766016,
2008-11-19, 02:12:04,VALID,1007.11,VALID,0,VALID,95.4363,VALID,0,VALID,24.5125,VALID,100,VALID,0.783203,
2008-11-19, 02:13:04,VALID,1007.1,VALID,0,VALID,95.4211,VALID,0,VALID,24.493,VALID,131,VALID,0.752344,
2008-11-19, 02:14:04,VALID,1007.09,VALID,0,VALID,95.4058,VALID,0,VALID,24.454,VALID,127,VALID,1.12266,
2008-11-19, 02:15:04,VALID,1007.1,VALID,0,VALID,95.4363,VALID,0,VALID,24.4735,VALID,128,VALID,0.925781,
2008-11-19, 02:16:04,VALID,1007.11,VALID,0,VALID,95.4363,VALID,0,VALID,24.493,VALID,132,VALID,0.476172,
2008-11-19, 02:17:04,VALID,1007.1,VALID,0,VALID,95.4363,VALID,0,VALID,24.4522,VALID,126,VALID,1.39688,
2008-11-19, 02:18:04,VALID,1007.11,VALID,0,VALID,95.4516,VALID,0,VALID,24.4345,VALID,127,VALID,0.623828,
2008-11-19, 02:19:04,VALID,1007.1,VALID,0,VALID,95.4287,VALID,0,VALID,24.4735,VALID,118,VALID,0.497656,
2008-11-19, 02:20:04,VALID,1007.13,VALID,0,VALID,95.4516,VALID,0,VALID,24.4735,VALID,86,VALID,0.625391,
2008-11-19, 02:21:04,VALID,1007.14,VALID,0,VALID,95.4668,VALID,0,VALID,24.4735,VALID,99,VALID,0.987891,
2008-11-19, 02:22:04,VALID,1007.13,VALID,0,VALID,95.4516,VALID,0,VALID,24.493,VALID,119,VALID,0.877344,
2008-11-19, 02:23:04,VALID,1007.11,VALID,0,VALID,95.4592,VALID,0,VALID,24.4735,VALID,107,VALID,0.772266,
2008-11-19, 02:24:04,VALID,1007.17,VALID,0,VALID,95.4744,VALID,0,VALID,24.4735,VALID,82,VALID,0.557422,
2008-11-19, 02:25:04,VALID,1007.14,VALID,0,VALID,95.4744,VALID,0,VALID,24.493,VALID,97,VALID,1.01289,
2008-11-19, 02:26:04,VALID,1007.14,VALID,0,VALID,95.4592,VALID,0,VALID,24.5125,VALID,89,VALID,0.925781,
2008-11-19, 02:27:04,VALID,1007.11,VALID,0,VALID,95.4668,VALID,0,VALID,24.5125,VALID,120,VALID,0.911719,
2008-11-19, 02:28:04,VALID,1007.11,VALID,0,VALID,95.4668,VALID,0,VALID,24.493,VALID,111,VALID,1.11563,
2008-11-19, 02:29:04,VALID,1007.11,VALID,0,VALID,95.4821,VALID,0,VALID,24.493,VALID,128,VALID,0.894141,
2008-11-19, 02:30:04,VALID,1007.08,VALID,0,VALID,95.4821,VALID,0,VALID,24.5125,VALID,95,VALID,1.26875,
2008-11-19, 02:31:04,VALID,1007.1,VALID,0,VALID,95.4821,VALID,0,VALID,24.4911,VALID,96,VALID,1.12969,
2008-11-19, 02:32:04,VALID,1007.1,VALID,0,VALID,95.5049,VALID,0,VALID,24.4735,VALID,107,VALID,1.16367,
2008-11-19, 02:33:04,VALID,1007.1,VALID,0,VALID,95.4973,VALID,0,VALID,24.4735,VALID,111,VALID,0.857031,
2008-11-19, 02:34:04,VALID,1007.08,VALID,0,VALID,95.4821,VALID,0,VALID,24.5125,VALID,92,VALID,0.924609,
2008-11-19, 02:35:04,VALID,1007.1,VALID,0,VALID,95.4973,VALID,0,VALID,24.4717,VALID,95,VALID,0.883984,
2008-11-19, 02:36:04,VALID,1007.05,VALID,0,VALID,95.5126,VALID,0,VALID,24.532,VALID,93,VALID,1.13594,
2008-11-19, 02:37:04,VALID,1007.06,VALID,0,VALID,95.4897,VALID,0,VALID,24.4522,VALID,71,VALID,1.27813,
2008-11-19, 02:38:04,VALID,1007.1,VALID,0,VALID,95.4897,VALID,0,VALID,24.4735,VALID,77,VALID,1.38789,
2008-11-19, 02:39:04,VALID,1007.11,VALID,0,VALID,95.4897,VALID,0,VALID,24.493,VALID,106,VALID,0.779297,
2008-11-19, 02:40:04,VALID,1007.12,VALID,0,VALID,95.4973,VALID,0,VALID,24.4717,VALID,97,VALID,1.03164,
2008-11-19, 02:41:04,VALID,1007.14,VALID,0,VALID,95.5049,VALID,0,VALID,24.4522,VALID,104,VALID,0.828906,
2008-11-19, 02:42:04,VALID,1007.15,VALID,0,VALID,95.4897,VALID,0,VALID,24.493,VALID,96,VALID,0.489844,
2008-11-19, 02:43:04,VALID,1007.17,VALID,0,VALID,95.5049,VALID,0,VALID,24.5125,VALID,110,VALID,0.8,
2008-11-19, 02:44:04,VALID,1007.17,VALID,0,VALID,95.4973,VALID,0,VALID,24.4735,VALID,97,VALID,1.89688,
2008-11-19, 02:45:04,VALID,1007.15,VALID,0,VALID,95.4973,VALID,0,VALID,24.4345,VALID,84,VALID,1.34258,
2008-11-19, 02:46:04,VALID,1007.18,VALID,0,VALID,95.5202,VALID,0,VALID,24.454,VALID,95,VALID,1.13906,
2008-11-19, 02:47:04,VALID,1007.17,VALID,0,VALID,95.4897,VALID,0,VALID,24.415,VALID,118,VALID,1.16484,
2008-11-19, 02:48:04,VALID,1007.18,VALID,0,VALID,95.4897,VALID,0,VALID,24.415,VALID,120,VALID,0.905859,
2008-11-19, 02:49:04,VALID,1007.21,VALID,0,VALID,95.5049,VALID,0,VALID,24.415,VALID,116,VALID,1.3168,
2008-11-19, 02:50:04,VALID,1007.24,VALID,0,VALID,95.4973,VALID,0,VALID,24.4345,VALID,122,VALID,0.914453,
2008-11-19, 02:51:04,VALID,1007.24,VALID,0,VALID,95.4897,VALID,0,VALID,24.415,VALID,137,VALID,0.670703,
2008-11-19, 02:52:04,VALID,1007.28,VALID,0,VALID,95.5049,VALID,0,VALID,24.4345,VALID,115,VALID,1.05156,
2008-11-19, 02:53:04,VALID,1007.26,VALID,0,VALID,95.5049,VALID,0,VALID,24.3956,VALID,104,VALID,1.51289,
2008-11-19, 02:54:04,VALID,1007.28,VALID,0,VALID,95.4821,VALID,0,VALID,24.4345,VALID,122,VALID,0.674219,
2008-11-19, 02:55:04,VALID,1007.29,VALID,0,VALID,95.4973,VALID,0,VALID,24.415,VALID,89,VALID,1.94844,
2008-11-19, 02:56:04,VALID,1007.29,VALID,0,VALID,95.4897,VALID,0,VALID,24.3956,VALID,109,VALID,1.62031,
2008-11-19, 02:57:04,VALID,1007.29,VALID,0,VALID,95.4821,VALID,0,VALID,24.3761,VALID,97,VALID,1.60469,
2008-11-19, 02:58:04,VALID,1007.31,VALID,0,VALID,95.4821,VALID,0,VALID,24.415,VALID,75,VALID,1.01992,
2008-11-19, 02:59:04,VALID,1007.33,VALID,0,VALID,95.4744,VALID,0,VALID,24.415,VALID,70,VALID,1.09141,
2008-11-19, 03:00:04,VALID,1007.33,VALID,0,VALID,95.4744,VALID,0,VALID,24.415,VALID,82,VALID,0.530859,
2008-11-19, 03:01:04,VALID,1007.35,VALID,0,VALID,95.4821,VALID,0,VALID,24.3761,VALID,84,VALID,1.27266,
2008-11-19, 03:02:04,VALID,1007.35,VALID,0,VALID,95.4668,VALID,0,VALID,24.3956,VALID,84,VALID,1.27734,
2008-11-19, 03:03:04,VALID,1007.37,VALID,0,VALID,95.4516,VALID,0,VALID,24.3956,VALID,89,VALID,1.7082,
2008-11-19, 03:04:04,VALID,1007.36,VALID,0,VALID,95.4668,VALID,0,VALID,24.3761,VALID,68,VALID,1.22969,
2008-11-19, 03:05:04,VALID,1007.36,VALID,0,VALID,95.4668,VALID,0,VALID,24.415,VALID,79,VALID,0.938281,
2008-11-19, 03:06:04,VALID,1007.37,VALID,0,VALID,95.4439,VALID,0,VALID,24.3956,VALID,66,VALID,0.708203,
2008-11-19, 03:07:04,VALID,1007.36,VALID,0,VALID,95.4592,VALID,0,VALID,24.3956,VALID,79,VALID,0.978516,
2008-11-19, 03:08:04,VALID,1007.36,VALID,0,VALID,95.4516,VALID,0,VALID,24.3566,VALID,54,VALID,1.84453,
2008-11-19, 03:09:04,VALID,1007.38,VALID,0,VALID,95.4668,VALID,0,VALID,24.3761,VALID,60,VALID,1.2418,
2008-11-19, 03:10:04,VALID,1007.39,VALID,0,VALID,95.4363,VALID,0,VALID,24.3761,VALID,99,VALID,0.764453,
2008-11-19, 03:11:04,VALID,1007.38,VALID,0,VALID,95.4363,VALID,0,VALID,24.3761,VALID,55,VALID,1.40898,
2008-11-19, 03:12:04,VALID,1007.39,VALID,0,VALID,95.3905,VALID,0,VALID,24.3176,VALID,70,VALID,1.88477,
2008-11-19, 03:13:04,VALID,1007.4,VALID,0,VALID,95.3677,VALID,0,VALID,24.3566,VALID,88,VALID,1.30586,
2008-11-19, 03:14:04,VALID,1007.39,VALID,0,VALID,95.3143,VALID,0,VALID,24.3566,VALID,88,VALID,1.74922,
2008-11-19, 03:15:04,VALID,1007.4,VALID,0,VALID,95.2838,VALID,0,VALID,24.3761,VALID,92,VALID,1.33828,
2008-11-19, 03:16:04,VALID,1007.41,VALID,0,VALID,95.2533,VALID,0,VALID,24.3956,VALID,103,VALID,1.66445,
2008-11-19, 03:17:04,VALID,1007.44,VALID,0,VALID,95.1923,VALID,0,VALID,24.3956,VALID,99,VALID,1.71367,
2008-11-19, 03:18:04,VALID,1007.44,VALID,0,VALID,95.1313,VALID,0,VALID,24.3974,VALID,78,VALID,1.03203,
2008-11-19, 03:19:04,VALID,1007.45,VALID,0,VALID,95.0779,VALID,0,VALID,24.3761,VALID,81,VALID,1.10156,
2008-11-19, 03:20:04,VALID,1007.45,VALID,0,VALID,95.0093,VALID,0,VALID,24.3761,VALID,78,VALID,1.10312,
2008-11-19, 03:21:04,VALID,1007.43,VALID,0,VALID,94.9406,VALID,0,VALID,24.3566,VALID,96,VALID,1.49766,
2008-11-19, 03:22:04,VALID,1007.44,VALID,0,VALID,94.8644,VALID,0,VALID,24.3761,VALID,95,VALID,1.18906,
2008-11-19, 03:23:04,VALID,1007.47,VALID,0,VALID,94.8186,VALID,0,VALID,24.3566,VALID,88,VALID,0.86875,
2008-11-19, 03:24:04,VALID,1007.45,VALID,0,VALID,94.7576,VALID,0.105969,VALID,24.3334,VALID,74,VALID,0.448828,
2008-11-19, 03:25:04,VALID,1007.45,VALID,0,VALID,94.7042,VALID,0.105969,VALID,24.3547,VALID,91,VALID,0.723828,
2008-11-19, 03:26:04,VALID,1007.46,VALID,0,VALID,94.6661,VALID,0.105969,VALID,24.3352,VALID,74,VALID,0.671094,
2008-11-19, 03:27:04,VALID,1007.49,VALID,0,VALID,94.567,VALID,0.105969,VALID,24.2749,VALID,37,VALID,1.11016,
2008-11-19, 03:28:04,VALID,1007.48,VALID,0,VALID,94.4755,VALID,0.105969,VALID,24.2768,VALID,82,VALID,0.955078,
2008-11-19, 03:29:04,VALID,1007.5,VALID,0,VALID,94.4145,VALID,0,VALID,24.2981,VALID,88,VALID,0.697656,
2008-11-19, 03:30:04,VALID,1007.48,VALID,0,VALID,94.3534,VALID,0,VALID,24.2573,VALID,89,VALID,1.46836,
2008-11-19, 03:31:04,VALID,1007.51,VALID,0,VALID,94.2543,VALID,0.105969,VALID,24.2378,VALID,85,VALID,1.40039,
2008-11-19, 03:32:04,VALID,1007.52,VALID,0,VALID,94.1781,VALID,0.105969,VALID,24.2183,VALID,83,VALID,0.762109,
2008-11-19, 03:33:04,VALID,1007.52,VALID,0,VALID,94.1552,VALID,0,VALID,24.2591,VALID,91,VALID,0.63125,
2008-11-19, 03:34:04,VALID,1007.53,VALID,0,VALID,94.1018,VALID,0.105969,VALID,24.197,VALID,91,VALID,0.921484,
2008-11-19, 03:35:04,VALID,1007.51,VALID,0,VALID,94.056,VALID,0.105969,VALID,24.2183,VALID,81,VALID,0.827344,
2008-11-19, 03:36:04,VALID,1007.51,VALID,0,VALID,94.0713,VALID,0.105969,VALID,24.2183,VALID,81,VALID,0.5375,
2008-11-19, 03:37:04,VALID,1007.55,VALID,0,VALID,94.0408,VALID,0.105969,VALID,24.1988,VALID,84,VALID,0.884375,
2008-11-19, 03:38:04,VALID,1007.55,VALID,0,VALID,94.0255,VALID,0.105969,VALID,24.2183,VALID,59,VALID,0.841406,
2008-11-19, 03:39:04,VALID,1007.59,VALID,0,VALID,94.0484,VALID,0,VALID,24.2202,VALID,75,VALID,0.444531,
2008-11-19, 03:40:04,VALID,1007.57,VALID,0,VALID,94.0789,VALID,0,VALID,24.2007,VALID,65,VALID,0.691016,
2008-11-19, 03:41:04,VALID,1007.58,VALID,0,VALID,94.1094,VALID,0,VALID,24.2007,VALID,73,VALID,0.625391,
2008-11-19, 03:42:04,VALID,1007.58,VALID,0,VALID,94.0865,VALID,0,VALID,24.1812,VALID,71,VALID,0.584375,
2008-11-19, 03:43:04,VALID,1007.58,VALID,0,VALID,94.1323,VALID,0,VALID,24.1812,VALID,82,VALID,0.616406,
2008-11-19, 03:44:04,VALID,1007.57,VALID,0,VALID,94.1247,VALID,0,VALID,24.1812,VALID,75,VALID,0.677344,